Location: ?????
(42.2640°N, 43.4211°E)
Time: 01:45:04
(UTC+00:00)

Cosmos 1603 - Pass Details

Date: 07 August 2020
Orbit: 831 x 860 km, 71.0° (Epoch: 23 September)

Event Time Altitude Azimuth Distance (km) Brightness Sun altitude
Rises 00:58:25 0° 333° (NNW) 3,442 7.0 -11.7°
Reaches altitude 10° 01:00:54 10° 332° (NNW) 2,500 6.2 -11.3°
Maximum altitude 01:06:37 71° 249° (WSW) 904 3.7 -10.4°
Drops below altitude 10° 01:12:15 10° 167° (SSE) 2,469 5.9 -9.5°
Sets 01:14:42 0° 165° (SSE) 3,396 6.7 -9.2°
